Location: Lombard
(41.8800°N, 88.0080°W)
Time: 23:04:02
(UTC-05:00)

Tiros 1 - Pass Details

Date: 27 January 2023
Orbit: 628 x 662 km, 48.4° (Epoch: 20 March)

Event Time Altitude Azimuth Distance (km) Brightness Sun altitude
Rises 10:03:09 0° 287° (WNW) 2,969 10.1 23.5°
Reaches altitude 10° 10:06:09 10° 268° (W) 2,061 9.5 23.8°
Maximum altitude 10:09:14 17° 227° (SW) 1,632 9.5 24.1°
Drops below altitude 10° 10:12:20 10° 186° (S) 2,063 10.7 24.4°
Sets 10:15:22 0° 167° (SSE) 2,974 11.8 24.6°
